Volver al catálogo

STARLINK-4777

ActivoComunicacionesVLEO
NORAD 53847·PAYLOAD·🇺🇸 United States

Lanzado Sep 19, 2022 desde Cape Canaveral Space Force Station

Loading…

Próximos Pases (próximas 24 horas)

TLE

ActualizadoSource: CelesTrak SupGP

Época: Sep 15, 2026, 02:48 UTC

1 53847C 22114AF  26258.11715278  .00011522  00000+0  72256-3 0  2585
2 53847  53.1584 163.0500 0001628  85.8873 131.8896 15.08827175    17

Sigue STARLINK-4777 en tiempo real con AllMySat

Download on the App Store